Regional Weather Roundup
Issued by NWS Charleston, SC

Current Version | Previous Version | Text Only | Print | Product List | Glossary Off
Versions: 1 2 3 4 5 6 7 8 9 10 11 12 13 14 15 16 17 18 19 20 21 22 23 24 25 26 27 28 29 30 31 32 33 34 35 36 37 38 39 40 41 42 43 44 45 46 47 48 49 50
000 ASUS42 KCHS 260013 RWRCHS REGIONAL WEATHER ROUNDUP NATIONAL WEATHER SERVICE CHARLESTON SC 800 PM EDT SUN SEP 25 2016 NOTE: "FAIR" INDICATES FEW OR NO CLOUDS BELOW 12,000 FEET WITH NO SIGNIFICANT WEATHER AND/OR OBSTRUCTIONS TO VISIBILITY. NOT ALL STATIONS ARE QUALITY CONTROLLED. USE DATA WITH CAUTION... ESPECIALLY DEWPOINT OBSERVATIONS. SCZ027-030-031-034>040-042>050-260100- ...SOUTHEAST SOUTH CAROLINA... CITY SKY/WX TMP DP RH WIND PRES REMARKS N CHARLESTON MOCLDY 79 71 76 E7 30.06R 6HR MIN TEMP: 79; 6HR MAX TEMP: 88; WATERFRONT PRK N/A 80 75 84 E10 30.03R MOUNT PLEASANT FAIR 75 73 94 CALM 30.06R JOHNS ISLAND FAIR 79 75 89 NE7 30.05S PINOPOLIS N/A 81 73 78 SE5 29.98S MONCKS CORNER FAIR 75 72 88 CALM 30.06R SUMMERVILLE FAIR 77 73 88 CALM 30.06R BEAUFORT MCAS MOCLDY 80 74 81 E9 30.05R 6HR MIN TEMP: 80; 6HR MAX TEMP: 88; BEAUFORT ARPT FAIR 79 73 83 E9 30.04S HILTON HEAD IS PTCLDY 81 75 83 NE7 30.04S WALTERBORO CLOUDY 79 73 83 SE5 30.06R ALLENDALE FAIR 77 70 78 CALM 30.04R ...SOUTHERN MIDLANDS AND PEE DEE... CITY SKY/WX TMP DP RH WIND PRES REMARKS GEORGETOWN FAIR 77 72 83 E6 30.08R KINGSTREE FAIR 73 72 94 E3 30.07R ORANGEBURG CLEAR 77 70 79 SE3 30.05S 6HR MIN TEMP: 77; 6HR MAX TEMP: 88; BARNWELL NOT AVBL AIKEN FAIR 77 66 69 SE5 30.09R MANNING FAIR 75 63 64 CALM 30.06R COLUMBIA PTCLDY 82 69 64 SE5 30.04S 6HR MIN TEMP: 82; 6HR MAX TEMP: 90; SUMTER CLEAR 79 70 74 SE2 30.03S 6HR MIN TEMP: 79; 6HR MAX TEMP: 90; FLORENCE PTCLDY 82 73 74 E6 30.06S 6HR MIN TEMP: 81; 6HR MAX TEMP: 88; MYRTLE BEACH CLOUDY 81 66 61 E7 30.09S N MYRTLE BEACH CLOUDY 78 72 81 E12 30.08R 6HR MIN TEMP: 78; 6HR MAX TEMP: 84; 6HR PCP: TRACE; $$ GAZ063-065-086>088-099>101-113>116-118-119-134>141-150-260100- ...SOUTHEAST GEORGIA... CITY SKY/WX TMP DP RH WIND PRES REMARKS SAVANNAH ARPT PTCLDY 79 69 71 E8 30.04R 6HR MIN TEMP: 79; 6HR MAX TEMP: 89; HUNTER AAF CLEAR 79 78 96 E8 30.01S 6HR MIN TEMP: 79; 6HR MAX TEMP: 87; FORT STEWART CLEAR 78 70 77 CALM 30.02R 6HR MIN TEMP: 78; 6HR MAX TEMP: 89; STATESBORO PTCLDY 77 71 82 CALM 30.04R SYLVANIA NOT AVBL CLAXTON FAIR 76 71 85 CALM 30.04R ...CSRA...CENTRAL AND FAR SOUTHEAST GEORGIA... CITY SKY/WX TMP DP RH WIND PRES REMARKS THOMSON CLEAR 82 70 66 SE3 30.09R AUGUSTA-BUSH CLEAR 76 70 82 SE3 30.03R 6HR MIN TEMP: 76; 6HR MAX TEMP: 90; AUGUSTA-DANIEL CLEAR 84 65 52 SE6 30.05R SWAINSBORO FAIR 81 66 61 E3 30.06R VIDALIA CLEAR 79 72 78 E5 30.04R EASTMAN FAIR 85 57 38 E5 30.05R HAZLEHURST FAIR 83 69 62 SW3 30.01S ALMA CLEAR 80 68 66 E5 30.02R 6HR MIN TEMP: 80; 6HR MAX TEMP: 90; WAYCROSS CLEAR 83 77 82 SE7 30.02R HX 91 JESUP FAIR 79 75 89 E5 30.03R BAXLEY FAIR 82 72 69 E5 30.02R BRUNSWICK PTCLDY 81 77 89 NE8 30.03R SAINT SIMONS PTCLDY 81 73 76 NE10 30.02R 6HR MIN TEMP: 80; 6HR MAX TEMP: 86; $$ SCZ027-028-034-036>038-045-046-048>050-GAZ119-141-260100- ...LAKE AND SUPPLEMENTAL COASTAL OBSERVATIONS... STATION/POSITION TIME TEMP WIND PRES WAVE SWELL AIR SEA DIR/SP/G HT/PER HT/PER/DIR (UTC) (F) (DEG/KT/KT) (MB) (FT/S) (FT/S/D) WINYAH BAY NOT AVBL LAKE MURRAY 2320 83 110/ 2/ 6 1016.6S ACE BASIN NERRS 2245 80 80/ 3 1017.0 FORT PULASKI 2342 82 60/ 15/ 18 1017.5S SAPELO ISLAND 2300 81 60/ 6 1017.0 $$ ANZ835-935-AMZ111-154-330-350-352-354-370-450-454-472-260100- ...C-MAN AND BUOY OBSERVATIONS... STATION/POSITION TIME TEMP WIND PRES WAVE SWELL AIR SEA DIR/SP/G HT/PER HT/PER/DIR (UTC) (F) (DEG/KT/KT) (MB) (FT/S) (FT/S/D) BUOY 41004 2350 81 82 70/ 17/ 19 1016.5R 5/10 3/100/10 BUOY 41008 2350 82 82 60/ 17/ 19 1016.0R 4/10 2/110/10 FOLLY BEACH CMAN 0000 80 70/ 14/ 16 1017.6R CAPERS NEARSHORE 2308 80 81 80/ 14/ 17 1017.1R FRIPP NEARSHORE 2308 80 81 80/ 16/ 19 1016.9R STATION/POSITION TIME TEMP WIND PRES WAVE SWELL AIR SEA DIR/SP/G HT/PER HT/PER/DIR (UTC) (F) (DEG/KT/KT) (MB) (FT/S) (FT/S/D) 5E ST. MARYS GA 2301 83 N/A 4/11 2/110/11 FRYING PAN BUOY 2350 79 82 60/ 17/ 21 1018.0R 5/ 9 3/110/ 9 BUOY 41025 2350 73 85 40/ 16/ 19 1019.2R 4/10 3/ 70/10 CAPE LOOKOUT NC 0000 73 50/ 16/ 18 1019.7R BUOY 41002 2350 82 83 50/ 14/ 16 1016.6R 3/ 8 2/ 60/ 8 BUOY 41010 NOT AVBL ST AUGUSTINE FL 0000 81 85 40/ 13/ 15 1016.9R $$

USA.gov is the U.S. government's official web portal to all federal, state and local government web resources and services.